星链-36657(STARLINK-36657)

导读

STARLINK-36657是美国SpaceX公司星链星座的第二代卫星,于2026年2月16日发射入轨,属于低轨宽带通信卫星。它继承星链成熟技术方案,配备增强型相控阵天线与激光星间链路,采用氪离子霍尔推进系统,具备自主避碰能力,设计寿命5-7年,旨在为全球提供高速低延迟互联网接入服务,是星链第二代大规模组网部署中的组成卫星。

Basic Information
目录编号:
67835
目录名称:
STARLINK-36657
国际标识:
2026-033Q
轨道中心:
EARTH
卫星名称:
星链-36657
卫星全名:
星链-36657(STARLINK-36657)
卫星状态:
在轨 (已飞行201 天)
发射日期:
2026-02-16 UTC
国别 :
美国 (US)
星等 :
--
Orbit Information
数据来源 国际轨道数据
星历时间: 2026-09-05T14:48:43+0800
8小时前
查看轨道信息
半长轴: 6861.183km
偏心率: 0.000083
轨道倾角: 43.000°
近地点辐角 227.880°
升交点赤经 332.527°
平近点角 132.199°
近地点: 482.476km
远地点: 483.616km
周期: 94.267分钟
每日圈数: 15.275811
Detailed Information
固有亮度:
5
最大亮度:
2.5
卫星平台:
Starlink V1.0
覆盖范围:
全球
运营商:
太空探索技术公司
运营商所在国:
美国
制造商(研发单位):
太空探索技术公司
制造商所在国:
美国
使用方式:
暂无
Satellite Introduction
Starlink 计划是 SpaceX 推出的全球卫星互联网项目,通过发射低轨道卫星,为全球尤其是偏远地区提供高速、低延迟的互联网服务。自 2019 年起,Starlink 已部署数千颗卫星,旨在缩小全球数字鸿沟,推动互联网普及。该项目还为军事、航空等行业提供通信支持,带来广泛经济效益。
2D Orbit Map
3D Orbit Map
Orbit Altitude Analysis Chart
Orbit Inclination Analysis Chart
Orbit Comprehensive Analysis Chart
View Comprehensive Chart
Conjunction Data List
Event ID Objects TCA Miss Dist (km) Collision Risk Probability Collision Risk Index (CRI) Action
CDM_260906-160206-075006-783521
OBJECT F (60750)
2026-09-06T
16:02:59+0000
0.728 km
远距离
5.702906E-5 中风险 0.7
CDM_260903-063806-707006-783521
DEAR-5 (67070)
2026-09-03T
06:38:47+0000
1.069 km
极远距离
8.847778E-6 低风险 0.54
CDM_260905-182206-429906-783521
2026-09-05T
18:22:37+0000
1.584 km
极远距离
4.782616E-6 低风险 0.49